Regional Weather Roundup
Issued by NWS

Home | Current Version | Previous Version | Text Only | Print | Product List | Glossary On
Versions: 1 2 3 4 5 6 7 8 9 10 11 12 13 14 15 16 17 18 19 20 21 22 23 24 25 26 27 28 29 30 31 32 33 34 35 36 37 38 39 40 41 42 43 44 45 46 47 48 49 50
000
ASCA44 KEWX 220020
RWRMX

LATIN AMERICA AND CARIBBEAN REGIONAL WEATHER ROUNDUP
NATIONAL WEATHER SERVICE AUSTIN/SAN ANTONIO TX
700 PM CDT TUE OCT 21 2014

NOTE: "FAIR" INDICATED FEW OR NO CLOUDS BELOW 12,000 FEET WITH NO
SIGNIFICANT WEATHER AND/OR OBSTRUCTIONS TO VISIBILITY.

BAJA CALIFORNIA

CITY           SKY/WX    TMP DP  RH WIND       PRES   REMARKS
LORETO         MOSUNNY   82  66  57 NE12      29.73S
LA PAZ         MOSUNNY   84  57  39 N12       29.75
MEXICALI       SUNNY     93  45  18 S5        29.72
S.J. DEL CABO  PTCLDY    81  64  57 S7        29.77S
TIJUANA        MOSUNNY   73  59  60 W14       29.87S

NORTHWESTERN MEXICO

CITY           SKY/WX    TMP DP  RH WIND       PRES   REMARKS
CULIACAN       CLEAR     91  68  46 NW17      29.71  HX  95
DURANGO        PTCLDY    77  46  33 SE5       29.99S
GUAYMAS        PTCLDY    88  68  51 SW14      29.68  HX  91
HERMOSILLO     CLEAR     91  55  29 S6        29.76
CD. JUAREZ     MOCLDY    72  52  49 E12       29.96
LOS MOCHIS     CLEAR     84  63  48 W9        29.73S
OBREGON        PTCLDY    88  61  40 W13       29.69

NORTHEASTERN MEXICO

CITY           SKY/WX    TMP DP  RH WIND       PRES   REMARKS
CHIHUAHUA      PTCLDY    66  54  63 E13       30.02
MATAMOROS      MOCLDY    81  77  89 NE12      29.91
MONCLOVA         N/A    N/A N/A N/A MISG        N/A
MONTERREY      MOCLDY    73  68  83 CALM      29.94R
NUEVO LAREDO   MOCLDY    75  70  83 E7        29.95
REYNOSA        MOCLDY    72  68  88 NE6       29.91
SALTILLO       PTCLDY    61  54  77 N12       30.06S
TORREON        MOCLDY    81  54  39 E10       29.90S
CD. VICTORIA   PTCLDY    77  70  78 N3        29.91

WESTERN MEXICO

CITY           SKY/WX    TMP DP  RH WIND       PRES   REMARKS
AGUASCALIENTES PTCLDY    70  48  46 E13       30.07
COLIMA         MOCLDY    72  72 100 CALM      29.84R FOG
DEL BAJIO      MOCLDY    70  54  56 NE12      30.10R
GUADALAJARA    PTCLDY    77  59  53 S6        29.95
MANZANILLO       N/A    N/A N/A N/A MISG        N/A
MAZATLAN       CLEAR     82  64  54 W14       29.68R
P. VALLARTA    CLOUDY    82  75  78 NE6       29.70R
URUAPAN        MOCLDY    63  63 100 NW9       30.03R THUNDER
ZACATECAS      MOCLDY    64  48  55 SE17      30.13R

CENTRAL MEXICO

CITY           SKY/WX    TMP DP  RH WIND       PRES   REMARKS
MEXICO CITY    CLOUDY    64  52  63 N16       30.17R
MORELIA        LGT RAIN  64  61  88 SW8       30.04
POZA RICA      CLOUDY    72  72 100 NW9       29.87R
PUEBLA         MOCLDY    61  54  77 N8        30.16R
QUERETARO      MOCLDY    66  54  63 NE14      30.12S
S. LUIS POTOSI MOCLDY    64  50  59 E9        30.12S
TAMPICO        MOCLDY    79  73  83 N13       29.84R
TOLUCA         MOCLDY    61  45  55 NE10      30.19S

SOUTHERN MEXICO

CITY           SKY/WX    TMP DP  RH WIND       PRES   REMARKS
ACAPULCO       MOCLDY    82  77  83 W8        29.70R HX  91
B. DE HUATULCO DRIZZLE   77  73  88 CALM      29.80
OAXACA         MOCLDY    68  61  77 SE6       30.02
P. ESCONDIDO   CLOUDY    79  75  89 E16       29.86S
VERACRUZ       MOCLDY    81  68  65 N14       29.71S
ZIHUATANEJO    MOCLDY    86  73  66 W3        29.71R HX  93

YUCATAN PENINSULA

CITY           SKY/WX    TMP DP  RH WIND       PRES   REMARKS
CAMPECHE       MOCLDY    81  79  94 N12       29.68R
CANCUN         LGT RAIN  77  75  94 E8        29.80R
CHETUMAL       MOCLDY    84  75  74 SE9       29.69R HX  92
CD. DEL CARMEN CLOUDY    81  75  83 CALM      29.70
COZUMEL        CLOUDY    75  75 100 E10       29.75S
MERIDA         RAIN      73  73 100 CALM      29.75R
MINATITLAN     CLOUDY    79  70  73 NE8       29.72
TAPACHULA      CLOUDY    77  75  94 CALM      29.79R
TUX. GUTIERREZ CLOUDY    73  72  94 NW7       29.83R
VILLAHERMOSA   DRIZZLE   77  75  94 W6        29.73R

CENTRAL AMERICA

CITY           SKY/WX    TMP DP  RH WIND       PRES   REMARKS
BELIZE CITY    MOCLDY    82  77  83 SE3       29.70R THUNDER HX  91
MANAGUA        PTCLDY    79  75  89 CALM      29.74S

CARIBBEAN

CITY           SKY/WX    TMP DP  RH WIND       PRES   REMARKS
ARUBA          PTCLDY    82  77  83 E16       29.80R HX  91
KINGSTON       PTCLDY    84  73  70 E12       29.86S HX  91
NASSAU         MOCLDY    82  77  83 N7        29.94R HX  91
SAN JUAN       PTCLDY    82  75  78 E7        29.94R
SANTO DOMINGO  PTCLDY    82  73  74 VRB3      29.83F
ST. CROIX      PTCLDY    79  73  83 NE5       29.94R
ST. KITTS      PTCLDY    81  73  78 NE10      29.94R

$$




USA.gov is the U.S. government's official web portal to all federal, state and local government web resources and services.